Regional Weather Roundup
Issued by NWS

Home | Current Version | Previous Version | Graphics & Text | Print | Product List | Glossary On
Versions: 1 2 3 4 5 6 7 8 9 10 11 12 13 14 15 16 17 18 19 20 21 22 23 24 25 26 27 28 29 30 31 32 33 34 35 36 37 38 39 40 41 42 43 44 45 46 47 48 49 50
000
ASUS43 KFSD 051910
RWRSD

WEATHER ROUNDUP FOR SOUTH DAKOTA
NATIONAL WEATHER SERVICE SIOUX FALLS SD
200 PM CDT SUN JUL 05 2015

NOTE: "FAIR" INDICATES FEW OR NO CLOUDS BELOW 12,000 FEET WITH NO
SIGNIFICANT WEATHER AND/OR OBSTRUCTIONS TO VISIBILITY.


SDZ001>005-009-010-012>017-052000-
NORTHWEST AND NORTH CENTRAL SOUTH DAKOTA

CITY           SKY/WX    TMP DP  RH WIND       PRES   REMARKS
BUFFALO          N/A     77  60  55 N20       29.87R
FAITH            N/A     76  64  66 E10       29.87R
MOBRIDGE       PTSUNNY   82  68  62 E13       29.74F
$$

SDZ012>016-024>037-041>051-057-063-072>074-052000-
SOUTHWEST AND SOUTH CENTRAL SOUTH DAKOTA

CITY           SKY/WX    TMP DP  RH WIND       PRES   REMARKS
RAPID CTY ARPT CLOUDY    77  64  64 N17       29.90R
PIERRE         PTSUNNY   85  70  60 E7        29.75F
CUSTER         CLOUDY    73  59  61 NE13      30.01R
ELLSWORTH AFB  CLOUDY    75  64  69 N15       29.90
PHILIP         PTSUNNY   86  66  51 E13       29.80F
PINE RIDGE     MOSUNNY   87  68  52 NE8       29.82F
SPEARFISH      CLOUDY    72  63  73 N7        29.99R
WINNER         FAIR      93  66  40 S8        29.75F HX  96
$$

SDZ004>011-016>023-039-040-052000-
NORTHEAST SOUTH DAKOTA

CITY           SKY/WX    TMP DP  RH WIND       PRES   REMARKS
ABERDEEN       PTSUNNY   86  70  58 NW7       29.77S
WATERTOWN      SUNNY     88  69  53 SW18      29.80R
BROOKINGS      SUNNY     86  68  54 SW14G20   29.82F
SISSETON         N/A     87  69  54 W14       29.75F
$$

SDZ017-020-022-023-036>040-048>070-052000-
SOUTHEAST SOUTH DAKOTA

CITY           SKY/WX    TMP DP  RH WIND       PRES   REMARKS
SIOUX FALLS    MOSUNNY   88  66  48 S13       29.80R
HURON          SUNNY     87  72  60 SW7       29.75F
CHAMBERLAIN    PTSUNNY   84  74  71 SE6       29.76F
MITCHELL       SUNNY     90  69  50 S12       29.77R
YANKTON        MOSUNNY   88  70  55 S18G26    29.76S
$$

ABBREVIATIONS USED IN REMARKS
   TC - TEMPERATURE IN CELSIUS
  WCI - WIND CHILL INDEX
   HX - HEAT INDEX
  VSB - VISIBILITY



USA.gov is the U.S. government's official web portal to all federal, state and local government web resources and services.